Theta_e
316 316 316 316 315 315 315 315 315 314 314 314 314 315 314 314 311 303 302 303 311 316 311 301 300 300 297 299 305 304 292 286 285 285 287 294 292 296 297 297 302 304 302 310 325
316 315 315 315 315 314 314 314 314 314 314 314 314 314 313 313 298 302 312 315 315 313 300 296 293 296 292 291 298 297 289 286 291 291 290 294 293 293 292 294 298 301 308 320 322
315 315 315 314 314 314 314 314 314 313 314 313 313 313 312 306 295 299 318 315 314 306 297 295 294 292 291 292 289 293 289 294 294 294 296 295 295 296 293 288 296 299 308 318 320
315 315 314 314 314 313 313 313 313 313 313 312 313 312 311 299 282 301 314 315 313 301 296 294 292 287 285 286 291 286 290 291 293 296 294 294 298 296 295 293 294 300 311 318 319
314 314 313 313 313 313 313 313 312 312 311 312 312 311 300 289 290 300 312 305 299 298 294 291 288 287 283 285 286 285 286 291 292 294 294 296 294 295 296 298 299 308 314 318 319
314 313 313 313 312 312 312 311 310 311 313 311 310 308 293 285 296 299 299 298 295 294 293 293 290 291 287 286 285 287 288 289 291 290 292 292 294 294 294 303 306 310 314 317 318
313 313 312 312 311 311 311 309 309 311 309 309 309 303 292 289 297 298 299 295 295 295 292 294 293 291 289 286 290 289 285 287 288 288 288 292 289 290 296 302 305 309 314 315 314
313 312 311 311 311 311 308 308 307 308 309 307 309 296 288 298 299 296 295 294 295 295 295 296 296 292 289 290 288 285 285 279 285 286 288 290 281 289 296 300 302 305 310 311 311
312 311 311 310 310 309 307 306 306 306 307 308 294 290 284 299 292 294 292 292 293 294 295 299 295 289 290 286 282 282 277 276 280 286 286 287 281 289 294 299 300 302 307 310 309
311 310 310 310 309 305 307 304 302 299 297 297 296 284 288 287 292 295 294 295 291 293 292 291 287 284 285 283 273 273 275 277 277 282 285 283 283 288 292 296 298 301 305 308 307
311 310 309 309 308 303 296 290 287 285 288 285 285 286 288 292 293 291 297 293 292 288 281 287 283 276 280 281 283 282 279 278 281 286 283 282 283 286 291 295 295 298 303 305 305
310 309 309 309 304 302 292 288 287 288 282 288 288 289 291 291 287 290 295 287 287 282 286 284 277 282 287 286 284 282 280 278 280 285 285 282 282 287 289 291 294 297 300 303 304
310 309 308 309 304 294 289 288 293 292 282 284 286 288 288 289 285 287 292 288 283 283 283 280 281 286 285 285 283 282 280 279 279 284 285 283 282 282 289 292 294 297 300 303 303
310 308 309 307 292 289 287 292 295 292 274 277 282 285 288 287 283 291 293 289 284 280 282 281 284 284 282 283 285 278 283 283 282 280 276 285 274 277 286 288 291 296 299 302 303
309 308 307 301 289 286 290 291 295 286 265 279 282 289 287 283 284 286 291 286 280 281 281 278 280 281 282 283 285 280 285 284 284 281 279 279 275 277 287 283 289 293 298 297 297
308 307 306 296 288 289 291 292 286 273 263 276 282 281 281 283 283 285 285 286 286 280 280 280 286 285 285 287 287 287 285 285 284 278 272 277 277 276 278 280 286 291 290 292 291
308 307 300 296 287 290 292 284 273 267 278 276 277 280 280 279 280 280 279 273 275 269 268 276 278 283 288 283 284 285 279 265 268 266 270 277 276 275 281 282 283 287 288 288 288
308 302 296 294 290 290 284 277 266 274 272 280 280 280 276 278 278 277 275 273 276 276 272 269 269 279 284 285 282 282 281 270 265 267 271 280 271 274 282 285 286 286 287 287 287
302 291 289 291 292 286 280 267 268 269 277 278 278 275 273 278 276 275 268 273 276 274 269 268 271 280 283 284 286 281 279 281 277 274 270 274 276 279 283 283 285 284 285 285 286
289 287 287 291 288 283 276 273 275 279 281 280 272 276 272 274 272 269 266 275 276 277 277 276 270 278 281 283 282 283 283 275 275 270 268 273 274 273 276 278 283 283 281 283 284
288 283 288 289 286 279 269 272 277 280 282 278 275 275 275 270 265 270 266 275 278 278 274 278 273 273 278 279 279 281 278 280 275 276 268 271 272 275 274 275 277 280 281 281 282
287 280 288 286 277 272 272 276 283 280 281 280 280 279 276 276 264 271 266 272 281 278 276 277 274 266 273 279 281 284 280 278 274 271 271 271 273 279 278 278 277 278 278 279 281
285 283 289 284 270 268 276 278 280 280 280 279 278 280 278 275 267 273 275 281 281 278 278 274 268 263 268 274 278 274 280 278 274 271 267 266 271 277 279 279 279 278 278 279 280
288 280 280 279 275 273 272 275 276 281 280 280 279 279 276 274 276 272 275 280 281 280 285 278 273 269 266 272 277 272 275 277 271 269 266 267 271 275 277 278 278 277 277 277 278
288 283 282 272 273 274 271 274 275 275 279 279 278 278 272 271 271 270 275 278 279 281 276 271 269 268 272 275 276 277 274 273 268 271 268 270 269 272 274 276 277 275 273 274 276
285 284 282 275 278 274 272 271 276 276 275 275 273 278 276 271 271 266 277 276 273 276 267 268 266 270 266 275 272 274 273 272 272 273 272 271 272 274 273 273 270 266 265 267 268
290 289 285 277 274 272 273 275 277 277 277 278 277 274 273 277 278 278 279 281 280 277 273 264 262 267 263 270 264 266 267 270 274 270 272 270 273 275 275 278 274 271 268 268 268
Wind_Speed
18 18 19 20 20 20 20 19 19 18 18 17 16 16 16 16 12 4 10 1 8 13 8 5 8 8 3 3 2 2 5 7 4 2 5 5 4 4 4 5 1 1 2 3 14
18 19 19 20 21 21 21 20 20 19 19 17 16 15 15 12 4 9 8 9 11 12 7 8 9 7 5 4 3 4 6 2 5 3 4 7 6 8 7 6 2 1 2 7 16
18 19 19 20 21 21 21 21 20 20 19 16 15 14 14 4 4 4 12 10 12 8 3 2 4 4 4 3 4 5 16 5 3 2 5 5 8 5 6 4 2 3 5 15 15
19 20 21 21 21 21 20 21 20 20 18 13 12 12 11 2 3 4 11 12 10 4 3 3 5 3 1 3 4 5 5 11 11 13 8 8 8 7 6 9 5 9 12 17 16
20 20 21 22 22 22 21 21 21 19 14 9 8 10 4 7 1 4 12 10 7 4 3 1 0 2 3 4 3 6 9 11 10 11 14 11 14 9 13 10 10 8 13 18 12
20 20 22 23 24 23 22 22 21 14 12 5 5 5 4 7 4 5 8 9 3 1 2 4 4 5 5 4 4 4 5 12 12 15 11 14 16 7 3 3 4 4 13 14 13
20 21 22 23 24 22 22 23 16 11 11 4 4 3 7 3 1 7 6 3 3 3 3 4 4 4 3 4 6 5 10 10 15 9 12 10 18 21 10 6 6 8 7 8 11
21 22 23 23 24 23 24 24 11 11 10 2 5 3 3 2 4 7 6 7 6 7 5 6 4 4 4 4 4 4 5 10 9 6 9 12 20 20 10 9 9 9 7 7 11
21 22 23 24 25 23 26 18 9 8 6 5 5 3 4 8 9 8 1 7 8 4 2 2 6 4 1 4 6 4 10 6 10 7 9 11 15 19 11 11 11 9 11 7 10
19 21 22 23 22 21 26 8 7 5 6 2 2 4 8 8 7 9 5 8 4 5 5 6 4 0 2 3 8 4 6 5 8 4 4 8 16 14 7 11 12 12 12 10 10
19 20 20 20 15 17 13 6 9 8 11 4 3 2 6 11 4 6 6 8 6 7 5 3 2 6 10 10 13 12 12 16 15 13 10 15 15 16 11 8 10 11 13 9 11
20 21 21 18 6 8 6 7 2 3 4 2 3 5 6 3 5 9 7 8 6 6 9 2 7 7 7 10 11 13 14 13 8 10 3 10 16 9 5 5 7 11 12 14 11
19 20 22 20 5 6 6 2 3 3 1 5 4 3 6 4 4 8 8 6 3 4 9 6 8 9 9 13 13 11 10 13 9 3 10 11 8 5 3 3 2 5 10 17 15
20 20 20 18 5 1 3 4 1 3 5 9 7 4 8 3 1 5 4 2 5 4 6 7 6 6 14 15 9 3 7 12 12 7 4 6 4 2 1 7 2 3 10 11 14
19 19 18 9 1 3 4 3 3 3 5 11 8 4 9 6 7 9 6 6 1 5 3 6 5 9 11 9 3 7 6 5 6 6 3 6 6 3 3 4 4 5 8 7 6
18 20 13 2 2 0 4 3 4 8 4 6 6 8 9 5 7 7 8 6 3 4 3 7 6 3 3 11 6 10 5 2 2 3 4 4 3 4 5 5 6 7 10 8 7
17 19 4 1 4 3 2 4 7 8 3 8 5 8 6 6 8 9 8 10 12 11 8 9 5 4 2 8 4 5 3 4 5 6 1 6 6 3 6 7 4 5 8 9 7
18 9 4 2 3 3 3 7 9 1 3 3 5 7 5 9 5 8 8 7 3 4 5 6 11 7 6 2 5 5 3 3 1 2 3 6 5 4 6 6 5 6 8 11 11
11 4 2 5 3 3 6 8 6 5 4 6 7 4 5 3 1 8 4 4 3 5 5 5 7 6 4 2 2 6 3 2 2 1 4 1 3 2 6 6 7 7 7 9 10
2 3 3 7 2 5 8 4 3 3 0 3 2 5 4 6 7 7 3 4 7 4 2 4 9 3 8 4 2 2 5 4 4 4 3 2 2 2 6 8 3 5 7 7 7
4 4 4 6 4 7 5 4 2 2 1 3 2 4 3 3 1 3 4 5 4 7 3 3 1 10 5 6 6 7 5 4 1 2 2 1 3 1 3 5 5 5 5 5 6
2 3 3 3 6 2 2 4 1 0 1 0 1 4 3 2 2 3 4 5 6 3 9 2 3 5 6 4 3 3 5 4 2 6 2 0 2 4 4 3 1 4 4 4 4
2 2 3 5 3 2 2 1 0 0 1 1 2 2 1 2 3 3 2 2 5 4 8 5 2 6 12 6 4 5 7 3 2 2 2 3 3 3 3 4 5 4 4 4 4
3 3 5 6 1 6 3 1 1 0 1 1 2 1 3 3 2 5 4 3 7 2 12 2 1 4 4 5 4 6 8 9 1 3 2 1 2 7 7 5 3 3 4 4 3
3 1 3 3 3 3 3 3 2 1 0 0 2 2 4 3 4 3 3 5 3 6 6 4 1 2 7 9 5 5 5 8 6 1 4 3 2 3 3 1 1 2 1 1 2
5 4 1 1 3 4 2 4 6 2 5 2 3 3 5 4 7 5 4 1 4 5 4 4 3 3 5 5 5 4 6 6 2 4 3 1 3 2 1 4 1 2 3 2 3
1 2 4 2 2 4 5 5 6 6 2 5 5 2 3 7 6 10 7 6 6 5 2 3 2 5 5 6 6 5 3 3 3 1 1 3 2 2 4 4 2 1 2 1 1
Wind_Direction
12 8 4 1 359 356 354 352 350 350 347 348 349 350 359 349 349 12 51 237 5 12 17 350 24 2 30 34 344 191 243 255 278 92 272 325 328 354 339 119 163 227 215 312 120
10 6 2 359 357 353 351 350 348 346 343 344 343 348 355 349 4 44 28 23 26 16 27 29 9 9 22 355 299 210 236 219 211 234 286 322 6 332 7 340 278 323 269 173 138
7 4 359 358 356 353 350 347 345 342 338 338 334 344 349 20 67 346 327 7 14 33 53 52 48 60 57 357 302 275 250 275 261 283 359 304 315 318 1 290 185 287 258 179 161
4 0 357 356 354 351 348 344 342 337 334 329 326 341 346 90 105 271 343 343 349 13 45 27 22 43 29 239 235 294 304 289 290 306 318 317 305 286 226 243 273 256 206 188 173
3 359 356 354 353 349 345 344 341 339 339 329 328 353 20 45 76 283 324 334 331 347 317 353 8 189 210 226 305 245 271 272 296 302 281 284 287 280 272 264 292 276 191 185 168
1 359 356 354 351 347 343 342 343 346 1 6 359 20 63 78 268 298 331 323 321 266 245 164 208 214 256 236 200 248 279 284 286 284 269 271 254 271 290 329 319 243 199 179 165
1 359 357 354 349 344 339 338 342 351 5 24 32 55 68 135 318 320 307 267 269 221 246 215 183 154 190 270 251 262 288 277 267 264 269 263 251 235 271 268 242 228 190 162 137
359 358 355 352 349 343 336 340 345 347 338 96 66 47 114 277 295 341 326 318 280 248 220 249 163 196 169 274 315 311 258 273 286 220 245 212 259 252 208 213 221 208 212 154 142
358 357 354 352 350 345 331 341 5 12 59 83 40 45 352 329 2 315 330 294 307 315 272 274 117 182 119 256 276 205 275 249 295 212 246 212 250 260 203 204 214 200 203 164 141
357 355 355 353 351 350 333 349 14 27 357 42 70 32 357 318 314 319 304 297 303 337 22 40 48 51 172 228 263 254 266 261 253 289 6 300 260 246 202 189 214 199 183 166 140
355 352 354 354 359 8 353 15 14 356 39 61 328 1 296 309 297 321 322 347 9 46 30 341 301 238 253 233 244 263 257 265 269 259 289 266 266 247 229 200 210 201 176 143 131
352 350 348 352 42 26 24 63 69 206 326 24 289 279 255 263 307 320 10 24 28 10 351 302 260 240 279 267 262 250 263 274 280 272 245 271 278 226 178 200 199 180 163 140 126
351 349 344 346 143 51 72 39 304 142 56 321 284 301 311 6 307 302 15 340 358 335 335 281 262 301 279 287 264 233 259 275 265 299 248 259 260 213 159 98 24 224 159 151 145
348 348 345 343 56 310 66 323 122 120 76 337 348 353 348 292 287 331 28 9 338 318 317 268 276 283 315 302 259 265 224 249 267 260 264 178 162 35 109 44 344 150 140 143 133
344 345 346 28 224 54 315 331 136 58 29 327 315 312 323 55 293 329 354 7 313 287 307 269 294 327 332 336 321 249 307 265 251 279 314 346 72 329 127 51 38 70 143 77 94
340 340 343 19 59 42 338 86 53 42 285 339 335 349 358 6 346 316 4 3 240 331 259 261 281 268 288 304 267 298 292 331 284 319 33 334 38 28 23 8 337 49 63 54 76
336 335 355 80 334 352 75 54 30 87 349 347 337 342 338 320 333 13 350 8 34 357 358 324 296 301 305 328 330 353 11 341 2 21 304 323 72 28 1 3 337 346 63 57 51
331 340 333 71 342 110 61 41 59 302 302 319 323 315 3 1 356 341 358 11 12 28 317 350 329 2 344 8 311 321 8 132 355 359 297 0 34 14 359 12 55 77 87 74 61
341 339 26 338 4 93 71 47 198 210 252 325 324 14 332 13 328 2 19 336 355 353 2 338 282 310 288 314 350 334 359 283 291 217 55 54 73 23 16 49 44 71 80 76 79
39 356 303 319 23 64 71 164 213 208 337 59 39 39 322 325 3 31 356 296 337 346 172 298 296 283 302 358 332 228 307 12 3 14 56 40 77 46 357 357 44 52 61 70 70
45 27 265 342 53 47 107 199 227 245 128 130 188 302 289 295 96 321 275 292 344 323 8 310 226 297 5 21 335 339 7 4 169 4 119 20 56 185 321 307 327 57 49 46 70
77 357 325 27 49 18 116 180 305 307 59 39 201 220 254 302 299 273 249 224 3 335 348 292 293 287 260 278 283 8 358 359 27 328 43 17 29 31 6 330 288 65 48 45 57
81 287 338 65 96 342 286 61 303 8 253 274 275 215 310 280 342 228 288 241 345 19 344 337 313 338 346 6 24 33 351 326 247 63 0 97 289 53 27 83 55 77 58 51 42
97 357 334 46 114 128 137 175 288 332 268 282 274 45 1 327 236 290 306 306 340 345 357 349 293 157 207 266 324 316 338 338 320 77 232 237 303 352 5 0 44 64 37 6 11
39 145 156 290 326 93 79 186 138 237 73 94 298 206 146 304 306 268 273 311 324 5 14 76 318 12 268 268 271 280 322 343 39 319 104 233 147 329 339 287 59 73 92 57 339
134 149 50 169 117 97 335 241 183 217 142 222 166 175 173 210 197 260 314 355 258 343 43 355 299 332 291 358 354 286 350 337 40 9 70 33 43 262 6 130 92 225 176 173 214
120 65 115 182 115 106 219 199 204 133 287 187 183 122 253 245 235 236 239 264 255 300 297 70 41 355 283 352 342 349 290 325 313 295 286 68 316 316 29 47 36 306 181 208 249